Time,TemperatureF,DewpointF,PressureIn,WindDirection,WindDirectionDegrees,WindSpeedMPH,WindSpeedGustMPH,Humidity,HourlyPrecipIn,Conditions,Clouds,dailyrainin,SoftwareType,DateUTC
2013-06-13 00:00:00,66.0,-99.9,-100.00,SE,142,18.0,23.0,-999,-99.99,,,-99.99,,2013-06-13 07:00:00,
2013-06-13 00:33:00,66.0,-99.9,-100.00,SE,133,20.0,22.0,-999,-99.99,,,-99.99,,2013-06-13 07:33:00,
2013-06-13 00:43:00,66.0,-99.9,-100.00,SE,142,18.0,23.0,-999,-99.99,,,-99.99,,2013-06-13 07:43:00,
2013-06-13 00:52:00,66.0,-99.9,-100.00,SE,142,18.0,23.0,-999,-99.99,,,-99.99,,2013-06-13 07:52:00,
2013-06-13 03:02:00,62.0,-99.9,-100.00,SE,137,13.0,17.0,-999,-99.99,,,-99.99,,2013-06-13 10:02:00,
2013-06-13 03:12:00,62.0,-99.9,-100.00,SE,137,13.0,17.0,-999,-99.99,,,-99.99,,2013-06-13 10:12:00,
2013-06-13 04:10:00,58.0,-99.9,-100.00,SE,126,14.0,17.0,-999,-99.99,,,-99.99,,2013-06-13 11:10:00,
2013-06-13 04:32:00,60.0,-99.9,-100.00,SE,139,10.0,18.0,-999,-99.99,,,-99.99,,2013-06-13 11:32:00,
2013-06-13 04:43:00,60.0,-99.9,-100.00,SE,139,10.0,18.0,-999,-99.99,,,-99.99,,2013-06-13 11:43:00,
2013-06-13 04:52:00,58.0,-99.9,-100.00,SE,126,14.0,17.0,-999,-99.99,,,-99.99,,2013-06-13 11:52:00,
2013-06-13 05:02:00,58.0,-99.9,-100.00,SE,126,14.0,17.0,-999,-99.99,,,-99.99,,2013-06-13 12:02:00,
2013-06-13 05:10:00,58.0,-99.9,-100.00,SSE,150,14.0,20.0,-999,-99.99,,,-99.99,,2013-06-13 12:10:00,
2013-06-13 05:35:00,59.0,-99.9,-100.00,SE,142,12.0,17.0,-999,-99.99,,,-99.99,,2013-06-13 12:35:00,
2013-06-13 05:43:00,59.0,-99.9,-100.00,SE,142,12.0,17.0,-999,-99.99,,,-99.99,,2013-06-13 12:43:00,
2013-06-13 05:52:00,58.0,-99.9,-100.00,SSE,150,14.0,20.0,-999,-99.99,,,-99.99,,2013-06-13 12:52:00,
2013-06-13 06:02:00,58.0,-99.9,-100.00,SSE,150,14.0,20.0,-999,-99.99,,,-99.99,,2013-06-13 13:02:00,
2013-06-13 07:02:00,60.0,-99.9,-100.00,SSE,151,9.0,19.0,-999,-99.99,,,-99.99,,2013-06-13 14:02:00,
2013-06-13 07:12:00,60.0,-99.9,-100.00,SSE,151,9.0,19.0,-999,-99.99,,,-99.99,,2013-06-13 14:12:00,
2013-06-13 07:22:00,60.0,-99.9,-100.00,SSE,151,9.0,19.0,-999,-99.99,,,-99.99,,2013-06-13 14:22:00,
2013-06-13 08:40:00,70.0,-99.9,-100.00,SE,129,18.0,19.0,-999,-99.99,,,-99.99,,2013-06-13 15:40:00,
2013-06-13 09:22:00,70.0,-99.9,-100.00,SE,129,18.0,19.0,-999,-99.99,,,-99.99,,2013-06-13 16:22:00,
2013-06-13 09:34:00,70.0,-99.9,-100.00,SE,129,18.0,19.0,-999,-99.99,,,-99.99,,2013-06-13 16:34:00,
2013-06-13 11:00:00,77.0,-99.9,-100.00,SSE,150,22.0,27.0,-999,-99.99,,,-99.99,,2013-06-13 18:00:00,
2013-06-13 11:52:00,77.0,-99.9,-100.00,SSE,150,22.0,27.0,-999,-99.99,,,-99.99,,2013-06-13 18:52:00,
2013-06-13 12:43:00,78.0,-99.9,-100.00,SE,145,21.0,24.0,-999,-99.99,,,-99.99,,2013-06-13 19:43:00,
2013-06-13 12:53:00,78.0,-99.9,-100.00,SE,145,21.0,24.0,-999,-99.99,,,-99.99,,2013-06-13 19:53:00,
2013-06-13 13:30:00,79.0,-99.9,-100.00,SE,132,24.0,29.0,-999,-99.99,,,-99.99,,2013-06-13 20:30:00,
2013-06-13 14:22:00,79.0,-99.9,-100.00,SE,132,24.0,29.0,-999,-99.99,,,-99.99,,2013-06-13 21:22:00,
2013-06-13 15:10:00,79.0,-99.9,-100.00,SSE,154,25.0,28.0,-999,-99.99,,,-99.99,,2013-06-13 22:10:00,
2013-06-13 15:40:00,80.0,-99.9,-100.00,SE,142,19.0,30.0,-999,-99.99,,,-99.99,,2013-06-13 22:40:00,
2013-06-13 15:43:00,80.0,-99.9,-100.00,SE,132,24.0,27.0,-999,-99.99,,,-99.99,,2013-06-13 22:43:00,
2013-06-13 15:52:00,79.0,-99.9,-100.00,SSE,154,25.0,28.0,-999,-99.99,,,-99.99,,2013-06-13 22:52:00,
2013-06-13 16:02:00,79.0,-99.9,-100.00,SSE,154,25.0,28.0,-999,-99.99,,,-99.99,,2013-06-13 23:02:00,
2013-06-13 16:22:00,80.0,-99.9,-100.00,SE,142,19.0,30.0,-999,-99.99,,,-99.99,,2013-06-13 23:22:00,
2013-06-13 16:32:00,80.0,-99.9,-100.00,SE,142,19.0,30.0,-999,-99.99,,,-99.99,,2013-06-13 23:32:00,
2013-06-13 16:53:00,79.0,-99.9,-100.00,SSE,150,27.0,27.0,-999,-99.99,,,-99.99,,2013-06-13 23:53:00,
2013-06-13 17:02:00,79.0,-99.9,-100.00,SSE,150,27.0,27.0,-999,-99.99,,,-99.99,,2013-06-14 00:02:00,
2013-06-13 18:12:00,76.0,-99.9,-100.00,SSE,158,24.0,27.0,-999,-99.99,,,-99.99,,2013-06-14 01:12:00,
2013-06-13 18:53:00,75.0,-99.9,-100.00,SE,145,18.0,32.0,-999,-99.99,,,-99.99,,2013-06-14 01:53:00,
2013-06-13 19:02:00,75.0,-99.9,-100.00,SE,145,18.0,32.0,-999,-99.99,,,-99.99,,2013-06-14 02:02:00,
2013-06-13 20:10:00,65.0,-99.9,-100.00,SE,126,20.0,24.0,-999,-99.99,,,-99.99,,2013-06-14 03:10:00,
2013-06-13 20:53:00,65.0,-99.9,-100.00,SE,126,20.0,24.0,-999,-99.99,,,-99.99,,2013-06-14 03:53:00,
2013-06-13 21:02:00,65.0,-99.9,-100.00,SE,126,20.0,24.0,-999,-99.99,,,-99.99,,2013-06-14 04:02:00,
2013-06-13 21:53:00,64.0,-99.9,-100.00,ESE,105,16.0,22.0,-999,-99.99,,,-99.99,,2013-06-14 04:53:00,
2013-06-13 22:02:00,62.0,-99.9,-100.00,SE,140,12.0,19.0,-999,-99.99,,,-99.99,,2013-06-14 05:02:00,
2013-06-13 22:12:00,62.0,-99.9,-100.00,SE,140,12.0,19.0,-999,-99.99,,,-99.99,,2013-06-14 05:12:00,
2013-06-13 22:50:00,61.0,-99.9,-100.00,SSE,147,14.0,18.0,-999,-99.99,,,-99.99,,2013-06-14 05:50:00,
2013-06-13 23:34:00,61.0,-99.9,-100.00,SSE,147,14.0,18.0,-999,-99.99,,,-99.99,,2013-06-14 06:34:00,
2013-06-13 23:44:00,61.0,-99.9,-100.00,SSE,147,14.0,18.0,-999,-99.99,,,-99.99,,2013-06-14 06:44:00,